• In Hungary
  • List of Countries
  • For 7 days
  • Water Temperature
  • Satellite Maps
  • Weather Map
  • News
  • Weather Widgets
  • user-avatar
    Login

    Hourly Weather Ninove

    Today, 22 February, Thursday

    Time Temperature Precipitation Wind Pressure Humidity
    00:00 -3°C° 0 mm 4 mps 765 mmHg 77%
    01:00 -3°C° 0 mm 4 mps 765 mmHg 78%
    02:00 -3°C° 0 mm 4 mps 765 mmHg 78%
    03:00 -3°C° 0 mm 4 mps 764 mmHg 79%
    04:00 -3°C° 0 mm 4 mps 764 mmHg 78%
    05:00 -4°C° 0 mm 4 mps 764 mmHg 77%
    06:00 -4°C° 0 mm 4 mps 764 mmHg 76%
    07:00 -4°C° 0 mm 5 mps 764 mmHg 70%
    08:00 -2°C° 0 mm 5 mps 764 mmHg 64%
    09:00 -2°C° 0 mm 6 mps 765 mmHg 58%
    10:00 -1°C° 0 mm 6 mps 764 mmHg 52%
    11:00 +1°C° 0 mm 6 mps 764 mmHg 47%
    12:00 +2°C° 0 mm 6 mps 764 mmHg 42%
    13:00 +3°C° 0 mm 6 mps 764 mmHg 43%
    14:00 +3°C° 0 mm 6 mps 763 mmHg 44%
    15:00 +3°C° 0 mm 6 mps 763 mmHg 44%
    16:00 +1°C° 0 mm 6 mps 763 mmHg 49%
    17:00 0°C° 0 mm 5 mps 763 mmHg 54%
    18:00 -1°C° 0 mm 5 mps 764 mmHg 59%
    19:00 -1°C° 0 mm 5 mps 764 mmHg 61%
    20:00 -2°C° 0 mm 5 mps 764 mmHg 62%
    21:00 -2°C° 0 mm 5 mps 764 mmHg 64%
    22:00 -4°C° 0 mm 5 mps 764 mmHg 65%
    23:00 -4°C° 0 mm 5 mps 764 mmHg 66%

    Tomorrow, 23 February, Friday

    Time Temperature Precipitation Wind Pressure Humidity
    00:00 -3°C° 0 mm 4 mps 764 mmHg 67%
    01:00 -3°C° 0 mm 4 mps 764 mmHg 67%
    02:00 -4°C° 0 mm 4 mps 764 mmHg 68%
    03:00 -4°C° 0 mm 4 mps 764 mmHg 68%
    04:00 -5°C° 0 mm 5 mps 764 mmHg 67%
    05:00 -5°C° 0 mm 5 mps 764 mmHg 66%
    06:00 -5°C° 0 mm 5 mps 763 mmHg 65%
    07:00 -4°C° 0 mm 5 mps 763 mmHg 60%
    08:00 -3°C° 0 mm 6 mps 763 mmHg 54%
    09:00 -3°C° 0 mm 7 mps 763 mmHg 48%
    10:00 -2°C° 0 mm 7 mps 763 mmHg 44%
    11:00 -1°C° 0 mm 7 mps 763 mmHg 41%
    12:00 0°C° 0 mm 7 mps 762 mmHg 37%
    13:00 0°C° 0 mm 7 mps 762 mmHg 37%
    14:00 0°C° 0 mm 7 mps 762 mmHg 38%
    15:00 +2°C° 0 mm 6 mps 761 mmHg 38%
    16:00 +1°C° 0 mm 6 mps 761 mmHg 40%
    17:00 -2°C° 0 mm 6 mps 762 mmHg 42%
    18:00 -2°C° 0 mm 5 mps 762 mmHg 44%
    19:00 -2°C° 0 mm 5 mps 762 mmHg 43%
    20:00 -4°C° 0 mm 5 mps 762 mmHg 42%
    21:00 -4°C° 0 mm 5 mps 762 mmHg 42%
    22:00 -4°C° 0 mm 5 mps 762 mmHg 42%
    23:00 -4°C° 0 mm 5 mps 762 mmHg 43%

    Day after tomorrow, 24 February, Saturday

    Time Temperature Precipitation Wind Pressure Humidity
    00:00 -5°C° 0 mm 5 mps 762 mmHg 44%
    01:00 -5°C° 0 mm 5 mps 762 mmHg 45%
    02:00 -5°C° 0 mm 5 mps 762 mmHg 45%
    03:00 -5°C° 0 mm 5 mps 762 mmHg 46%
    04:00 -5°C° 0 mm 5 mps 762 mmHg 47%
    05:00 -5°C° 0 mm 5 mps 762 mmHg 47%
    06:00 -5°C° 0 mm 6 mps 762 mmHg 47%
    07:00 -4°C° 0 mm 6 mps 762 mmHg 44%
    08:00 -3°C° 0 mm 7 mps 762 mmHg 41%
    09:00 -2°C° 0 mm 7 mps 762 mmHg 38%
    10:00 -1°C° 0 mm 7 mps 762 mmHg 37%
    11:00 0°C° 0 mm 7 mps 762 mmHg 36%
    12:00 +2°C° 0 mm 7 mps 762 mmHg 34%
    13:00 +3°C° 0 mm 7 mps 762 mmHg 34%
    14:00 +3°C° 0 mm 7 mps 762 mmHg 33%
    15:00 +3°C° 0 mm 7 mps 761 mmHg 33%
    16:00 +2°C° 0 mm 7 mps 762 mmHg 35%
    17:00 +1°C° 0 mm 6 mps 762 mmHg 37%
    18:00 -2°C° 0 mm 6 mps 763 mmHg 39%
    19:00 -2°C° 0 mm 6 mps 763 mmHg 42%
    20:00 -3°C° 0 mm 6 mps 764 mmHg 45%
    21:00 -3°C° 0 mm 6 mps 764 mmHg 48%
    22:00 -3°C° 0 mm 6 mps 765 mmHg 50%
    23:00 -4°C° 0 mm 6 mps 765 mmHg 52%

    25 February, Sunday

    Time Temperature Precipitation Wind Pressure Humidity
    00:00 -4°C° 0 mm 6 mps 765 mmHg 54%
    01:00 -4°C° 0 mm 6 mps 765 mmHg 51%
    02:00 -5°C° 0 mm 6 mps 765 mmHg 48%
    03:00 -5°C° 0 mm 6 mps 765 mmHg 45%
    04:00 -5°C° 0 mm 6 mps 766 mmHg 44%
    05:00 -5°C° 0 mm 6 mps 766 mmHg 43%
    06:00 -7°C° 0 mm 7 mps 766 mmHg 42%
    07:00 -6°C° 0 mm 7 mps 767 mmHg 38%
    08:00 -6°C° 0 mm 7 mps 767 mmHg 34%
    09:00 -5°C° 0 mm 8 mps 767 mmHg 31%
    10:00 -4°C° 0 mm 8 mps 767 mmHg 28%
    11:00 -2°C° 0 mm 7 mps 767 mmHg 25%
    12:00 -1°C° 0 mm 7 mps 768 mmHg 22%
    13:00 -1°C° 0 mm 7 mps 768 mmHg 23%
    14:00 -1°C° 0 mm 7 mps 768 mmHg 24%
    15:00 -1°C° 0 mm 7 mps 768 mmHg 25%
    16:00 -2°C° 0 mm 7 mps 768 mmHg 28%
    17:00 -3°C° 0 mm 6 mps 768 mmHg 30%
    18:00 -5°C° 0 mm 6 mps 769 mmHg 33%
    19:00 -5°C° 0 mm 6 mps 769 mmHg 34%
    20:00 -5°C° 0 mm 5 mps 769 mmHg 34%
    21:00 -6°C° 0 mm 5 mps 770 mmHg 35%
    22:00 -6°C° 0 mm 5 mps 770 mmHg 36%
    23:00 -6°C° 0 mm 5 mps 770 mmHg 36%

    26 February, Monday

    Time Temperature Precipitation Wind Pressure Humidity
    00:00 -7°C° 0 mm 4 mps 770 mmHg 37%
    01:00 -7°C° 0 mm 4 mps 770 mmHg 37%
    02:00 -7°C° 0 mm 4 mps 770 mmHg 38%
    03:00 -7°C° 0 mm 4 mps 770 mmHg 38%
    04:00 -7°C° 0 mm 4 mps 770 mmHg 39%
    05:00 -7°C° 0 mm 4 mps 770 mmHg 40%
    06:00 -7°C° 0 mm 4 mps 770 mmHg 41%
    07:00 -6°C° 0 mm 5 mps 770 mmHg 41%
    08:00 -6°C° 0 mm 5 mps 770 mmHg 41%
    09:00 -5°C° 0 mm 6 mps 770 mmHg 41%
    10:00 -4°C° 0 mm 6 mps 770 mmHg 39%
    11:00 -4°C° 0 mm 6 mps 769 mmHg 38%
    12:00 -3°C° 0 mm 6 mps 769 mmHg 36%
    13:00 -3°C° 0 mm 6 mps 768 mmHg 36%
    14:00 -3°C° 0 mm 6 mps 768 mmHg 37%
    15:00 -3°C° 0 mm 6 mps 768 mmHg 37%
    16:00 -4°C° 0 mm 5 mps 767 mmHg 41%
    17:00 -5°C° 0 mm 5 mps 767 mmHg 44%
    18:00 -5°C° 0 mm 4 mps 767 mmHg 48%
    19:00 -5°C° 0 mm 4 mps 767 mmHg 49%
    20:00 -5°C° 0 mm 4 mps 767 mmHg 50%
    21:00 -5°C° 0 mm 4 mps 767 mmHg 51%
    22:00 -7°C° 0 mm 4 mps 767 mmHg 52%
    23:00 -7°C° 0 mm 4 mps 767 mmHg 53%

    27 February, Tuesday

    Time Temperature Precipitation Wind Pressure Humidity
    00:00 -7°C° 0 mm 4 mps 767 mmHg 54%
    01:00 -7°C° 0 mm 4 mps 766 mmHg 56%
    02:00 -7°C° 0 mm 4 mps 766 mmHg 58%
    03:00 -6°C° 0 mm 3 mps 766 mmHg 60%
    04:00 -6°C° 0 mm 3 mps 766 mmHg 62%
    05:00 -8°C° 0 mm 4 mps 766 mmHg 64%
    06:00 -8°C° 0 mm 4 mps 765 mmHg 66%
    07:00 -7°C° 0 mm 4 mps 765 mmHg 62%
    08:00 -5°C° 0 mm 4 mps 765 mmHg 59%
    09:00 -6°C° 0 mm 5 mps 765 mmHg 55%
    10:00 -5°C° 0 mm 5 mps 765 mmHg 50%
    11:00 -4°C° 0 mm 5 mps 764 mmHg 44%
    12:00 -4°C° 0 mm 5 mps 764 mmHg 39%
    13:00 -4°C° 0 mm 5 mps 764 mmHg 38%
    14:00 -2°C° 0 mm 5 mps 763 mmHg 36%
    15:00 -2°C° 0 mm 4 mps 763 mmHg 34%
    16:00 -3°C° 0 mm 4 mps 763 mmHg 36%
    17:00 -4°C° 0 mm 3 mps 763 mmHg 39%
    18:00 -4°C° 0 mm 2 mps 763 mmHg 41%
    19:00 -4°C° 0 mm 2 mps 763 mmHg 41%
    20:00 -5°C° 0 mm 2 mps 763 mmHg 42%
    21:00 -3°C° 0 mm 1 mps 763 mmHg 42%
    22:00 -3°C° 0 mm 1 mps 762 mmHg 43%
    23:00 -3°C° 0 mm 1 mps 762 mmHg 43%
    Show more